Temperature
17 16 16 16 15 15 14 14 14 14 14 13 13 13 13 13 13 13 13 13 13 13 12 12 13 13 13 13 13 13 13 13 13 13 14 14 14 14 14 14 15 15 15
17 16 16 16 15 15 15 14 14 14 14 14 13 13 13 13 13 13 13 13 13 13 13 12 12 12 12 13 13 13 13 13 13 13 13 13 14 14 14 14 14 14 14
17 17 16 16 15 15 15 14 14 14 14 14 13 13 13 13 13 13 13 13 13 13 13 13 13 12 12 12 12 13 13 13 13 13 13 13 13 13 13 14 14 14 14
17 17 16 16 16 15 15 15 14 14 14 14 14 14 13 13 13 13 13 13 13 13 13 13 13 13 13 12 12 12 12 12 12 13 13 13 13 13 13 13 13 13 14
17 17 17 16 16 15 15 15 14 14 14 14 14 14 13 13 13 13 13 13 13 13 13 13 13 13 13 13 12 12 12 12 12 12 12 12 12 12 13 13 13 13 13
17 17 17 16 16 16 15 15 15 14 14 14 14 14 14 13 13 13 13 13 13 13 13 13 13 13 13 13 12 12 12 12 12 12 12 12 12 12 12 12 12 12 13
17 17 16 16 16 16 15 15 15 15 14 14 14 14 14 13 13 13 13 13 13 13 12 12 12 12 12 12 12 12 12 12 12 12 12 12 12 12 12 12 12 12 12
17 16 16 16 16 16 15 15 15 15 14 14 14 14 14 14 13 13 13 13 12 12 12 12 12 12 12 12 12 12 12 12 12 12 12 12 12 12 12 12 12 12 12
16 16 16 16 16 16 15 15 15 15 15 14 14 14 14 14 13 13 13 12 12 12 12 12 12 12 12 12 12 12 12 12 12 11 11 11 12 11 11 11 11 11 11
16 16 16 16 16 15 15 15 15 15 15 14 14 14 14 13 13 13 13 12 12 12 12 12 12 11 11 11 11 11 11 11 11 11 11 11 11 11 11 11 11 11 11
15 15 15 15 15 15 15 15 15 15 15 14 14 14 14 13 13 13 13 12 12 12 12 12 11 11 11 11 11 11 11 11 11 11 11 11 11 11 11 11 11 11 10
15 15 15 15 15 15 15 15 15 15 14 14 14 14 14 13 13 13 13 12 12 12 12 12 11 11 11 11 11 11 10 10 10 10 10 10 10 10 10 10 10 10 10
14 14 15 14 14 14 14 14 14 14 14 14 14 14 14 13 13 13 12 12 12 12 12 11 11 11 10 10 10 10 10 10 10 10 10 10 10 10 10 9 9 9 9
14 14 14 14 14 14 14 14 14 14 14 14 14 14 14 13 13 13 13 12 12 12 11 11 11 10 10 10 10 10 10 10 10 10 10 9 9 9 9 9 9 9 9
13 13 13 13 13 13 13 14 14 14 13 13 14 14 14 14 13 13 13 12 12 12 11 11 10 10 10 10 9 9 9 9 9 9 9 9 9 9 9 9 9 9 9
12 12 12 12 13 13 13 13 13 13 13 13 13 13 13 13 13 13 12 12 12 11 11 10 10 10 10 9 9 9 9 9 9 8 8 8 8 8 8 8 8 8 8
11 11 11 11 12 12 12 12 12 13 13 13 13 13 13 12 12 12 12 12 11 11 10 10 10 10 9 9 9 9 8 8 8 8 8 8 8 7 7 7 7 7 7
10 10 10 10 11 11 11 11 11 11 12 13 13 12 12 12 12 12 12 11 11 10 10 10 10 10 9 9 9 8 8 8 8 7 7 7 7 7 7 7 7 6 6
9 9 9 9 10 10 10 10 10 11 11 11 12 12 12 11 11 11 11 11 11 11 11 10 10 10 9 9 8 8 8 8 7 7 7 7 7 6 6 6 6 6 6
8 8 8 9 9 9 9 9 10 10 10 10 11 11 11 11 11 11 11 11 11 11 11 10 10 9 9 9 8 8 8 7 7 7 7 6 6 6 6 6 5 5 5
7 8 8 8 8 8 8 9 9 9 10 10 10 11 11 11 11 11 11 11 11 11 11 10 10 9 9 8 8 8 7 7 7 6 6 6 6 5 5 5 5 5 4
7 7 7 7 8 8 8 8 8 9 9 9 10 10 10 10 10 10 11 11 11 11 10 10 10 9 9 8 8 7 7 7 7 6 6 5 5 5 5 5 4 4 4
6 6 6 7 7 7 7 7 8 8 8 8 9 9 9 9 10 10 10 10 10 10 10 9 9 9 8 8 7 7 7 7 6 6 5 5 5 5 4 4 4 4 3
6 6 6 6 6 6 7 7 7 7 8 8 8 8 9 9 9 10 10 10 9 9 9 9 9 8 8 7 7 7 6 6 6 5 5 5 4 4 4 4 4 3 3
5 5 5 5 5 6 6 6 6 7 7 7 8 8 8 9 9 9 9 9 9 8 8 8 8 8 7 7 6 6 6 6 5 5 5 4 4 4 4 3 3 3 3
5 5 5 5 5 5 5 6 6 6 6 7 7 8 8 8 8 8 9 8 8 8 8 8 7 7 7 6 6 6 5 5 5 4 4 4 4 3 3 3 3 2 2
Wind_Speed
7 7 6 6 6 5 5 5 4 4 3 3 3 2 2 2 1 1 1 0 0 1 1 0 1 0 0 0 1 1 1 2 2 2 1 2 2 2 3 3 2 2 2
7 6 7 6 5 5 6 6 5 4 4 4 3 3 3 2 2 2 2 2 2 1 1 1 1 0 0 0 1 1 1 2 2 1 1 2 2 2 2 2 2 2 2
6 7 6 6 6 7 7 6 5 4 4 3 3 3 4 3 3 3 3 3 3 3 2 2 2 1 1 1 1 1 1 1 2 2 1 1 1 2 2 2 2 2 2
6 7 7 8 8 8 7 6 5 5 4 4 4 4 4 3 3 3 3 3 3 3 2 3 3 3 3 3 2 2 2 2 2 1 0 1 1 2 1 1 1 2 2
6 7 9 8 7 6 6 6 5 5 5 5 4 4 3 3 4 4 4 4 3 3 2 3 3 4 5 5 3 3 3 2 2 1 0 0 1 1 1 1 1 2 1
6 7 7 6 6 7 7 6 5 5 5 4 5 5 4 4 6 7 5 4 3 3 3 2 2 2 3 4 4 5 6 5 4 2 1 1 2 1 1 1 0 1 1
6 6 6 6 7 8 7 6 7 6 5 5 5 5 5 6 7 6 7 5 4 3 3 2 2 2 2 2 2 3 3 4 5 4 3 3 2 2 2 1 0 0 1
5 5 5 6 7 7 7 8 8 6 6 6 6 6 5 6 7 6 6 4 3 3 3 3 3 2 2 3 3 2 1 1 2 3 3 2 2 2 2 2 2 1 1
5 5 6 6 7 7 8 9 7 6 6 6 5 6 6 6 7 7 6 3 3 3 2 3 3 3 4 5 5 4 2 1 2 4 3 3 3 3 2 2 1 1 1
7 7 6 6 7 8 9 8 6 6 8 7 6 6 7 7 8 8 8 4 3 3 2 2 3 4 5 5 5 5 4 2 2 3 4 4 4 4 4 2 2 1 1
7 6 5 5 7 7 7 6 6 7 6 6 6 6 6 7 8 9 9 5 5 4 3 2 2 4 4 5 5 4 5 4 3 3 3 3 3 3 3 3 2 1 2
6 6 6 6 6 5 5 5 6 7 7 7 6 5 5 5 7 8 10 10 8 6 5 3 3 5 5 5 4 5 6 5 3 3 3 2 2 2 2 3 3 3 3
6 6 6 6 5 5 5 5 4 6 7 7 7 7 6 5 6 10 11 11 11 6 5 6 6 6 5 3 4 6 5 4 4 3 3 1 0 0 1 2 3 4 5
7 7 6 5 5 5 5 5 5 7 8 8 8 8 7 6 6 5 5 7 9 7 5 6 7 6 5 4 4 4 3 4 4 3 3 2 1 1 2 2 2 2 2
8 7 6 6 6 6 6 6 7 8 9 10 10 9 9 9 12 14 10 8 8 8 7 4 3 3 3 3 2 3 3 3 3 3 3 3 2 2 1 2 2 2 2
8 7 6 6 6 5 5 6 8 8 12 14 13 12 10 12 13 17 17 15 14 15 9 5 5 5 5 5 4 3 2 3 3 3 3 3 3 2 2 1 2 2 1
9 9 7 6 6 6 6 6 7 7 8 11 13 15 13 12 14 17 18 16 16 17 7 6 7 7 6 6 5 4 4 3 3 4 4 3 3 2 2 1 1 1 0
10 11 10 7 7 7 7 7 7 7 6 6 8 13 14 14 15 17 17 13 9 10 6 7 7 7 6 6 6 5 4 4 4 4 3 3 3 2 2 1 1 1 0
10 8 8 7 7 7 7 7 7 8 7 6 4 6 11 12 14 16 18 9 10 9 8 7 7 7 7 7 6 6 6 5 5 4 4 3 3 3 2 2 1 1 0
9 15 13 8 7 7 7 7 8 8 8 7 8 7 7 7 7 10 11 9 9 9 9 9 8 8 8 8 8 7 6 5 5 4 4 4 3 3 3 2 2 1 1
9 11 15 11 8 8 8 9 9 9 9 9 9 9 13 11 12 12 12 11 11 11 10 10 9 9 9 8 8 8 8 6 6 5 5 4 4 3 3 2 2 2 1
9 9 9 9 9 9 9 9 9 9 10 10 8 8 16 10 10 10 11 11 10 9 9 10 10 9 10 10 10 9 8 7 7 6 5 5 4 4 3 2 2 1 2
9 10 10 10 9 11 11 9 9 9 10 9 8 8 10 11 10 11 11 10 9 9 9 9 9 9 8 8 9 10 9 9 8 8 7 6 5 4 3 3 3 2 3
10 11 11 11 10 10 10 10 10 10 10 9 9 9 10 11 11 11 10 9 9 9 9 9 10 12 13 10 9 10 10 10 10 9 9 7 6 4 3 3 3 3 3
10 11 11 11 10 10 10 10 10 10 10 10 10 9 9 10 10 10 10 10 11 11 11 11 10 12 14 14 12 11 13 14 12 10 8 6 6 5 4 3 3 3 3
11 11 11 10 10 10 10 10 10 10 10 10 9 9 9 10 10 10 10 10 10 10 11 10 12 13 14 14 14 15 15 14 13 12 9 6 5 4 4 3 3 3 4
Wind_Direction
208 212 214 215 213 213 222 234 237 243 243 242 243 239 243 250 232 181 216 182 152 316 324 193 277 247 138 78 136 140 154 160 197 282 296 322 353 1 358 13 14 11 347
211 210 217 220 211 214 228 236 233 238 242 235 231 226 235 236 222 210 232 220 208 238 260 244 273 237 171 125 145 157 173 180 179 229 319 343 343 333 339 350 3 11 1
209 208 216 219 214 220 228 232 227 229 236 234 219 224 231 229 221 224 223 226 223 228 226 220 239 206 218 209 189 191 193 166 167 181 273 320 331 336 357 355 357 350 349
212 211 218 221 219 222 224 222 221 220 223 226 220 222 223 222 219 221 217 216 224 230 226 219 223 212 215 205 200 203 179 145 136 153 218 323 320 320 9 359 351 354 340
214 219 227 226 220 219 220 221 219 217 223 221 219 224 226 225 225 218 214 214 217 228 232 230 233 227 221 207 196 190 172 162 149 145 190 310 314 333 309 303 314 325 332
218 229 231 223 218 217 218 217 215 218 221 215 218 221 230 239 240 224 208 207 211 210 225 239 248 249 232 214 206 191 178 172 176 172 188 209 253 249 251 270 284 11 330
228 235 230 223 223 223 219 212 213 217 214 215 222 220 230 242 241 229 212 194 201 210 215 224 241 222 204 182 183 177 185 193 185 173 182 213 220 223 201 211 177 179 251
245 248 240 229 230 226 216 218 220 213 209 217 223 221 227 238 229 215 198 184 189 206 209 207 209 227 198 169 150 131 129 156 177 168 174 202 207 203 199 192 183 192 296
267 262 252 237 233 227 223 225 222 212 214 214 214 212 216 232 219 202 183 164 181 210 218 209 204 210 201 166 147 143 127 81 90 106 113 106 89 88 111 116 106 101 337
273 265 257 244 235 232 230 226 219 213 218 212 214 212 212 221 216 202 186 167 179 199 211 224 213 196 192 175 163 161 164 179 126 93 69 60 57 53 68 100 150 151 170
280 271 260 248 244 240 234 228 215 209 207 208 213 216 213 216 214 206 193 179 186 188 194 209 211 187 176 170 163 170 179 159 131 118 96 71 56 48 42 43 57 128 147
290 273 262 252 250 254 239 232 214 201 202 209 213 220 223 220 214 211 201 194 185 181 194 200 192 168 155 149 152 159 155 138 120 114 105 91 71 47 32 35 46 59 79
293 280 272 262 248 241 232 232 224 206 209 212 210 218 223 216 218 212 203 195 185 181 189 180 167 152 138 132 135 141 139 133 131 132 139 143 133 69 48 51 45 52 55
292 286 281 267 261 251 239 227 224 217 215 215 214 218 218 210 209 203 194 186 178 171 161 153 141 126 113 114 112 111 118 140 144 146 145 131 94 75 61 56 55 37 49
294 289 285 272 260 252 245 237 234 232 224 217 219 212 205 215 215 196 184 183 178 171 147 129 130 134 134 125 112 111 113 121 123 125 128 122 105 84 55 47 63 57 63
298 291 283 277 272 261 257 273 262 252 247 235 224 212 215 216 203 193 192 186 175 164 150 160 173 174 175 172 163 153 144 143 142 139 137 138 138 130 102 64 70 84 73
291 287 284 274 269 263 255 252 269 281 264 241 230 218 212 203 195 191 188 181 175 167 165 175 181 184 182 178 174 170 170 166 153 148 148 150 146 140 129 115 96 87 67
297 290 286 270 265 260 254 251 249 249 260 263 239 223 212 202 193 188 177 160 173 179 183 181 184 183 180 178 176 172 164 155 151 152 153 154 153 150 149 154 155 165 217
302 296 284 272 264 260 257 253 250 245 247 254 250 227 210 201 193 186 171 176 182 189 191 187 182 179 178 176 174 170 166 165 163 157 159 162 162 156 159 169 178 196 221
301 301 301 287 274 267 259 251 248 245 245 243 235 223 189 177 189 189 192 191 189 189 188 187 183 180 177 174 171 167 165 165 165 163 166 167 167 165 173 181 188 202 237
298 300 299 294 279 269 261 253 248 244 242 243 241 223 198 198 200 198 198 198 195 192 188 185 181 178 175 171 169 170 170 172 173 171 170 170 167 168 175 179 191 208 241
292 293 289 284 282 275 266 256 249 246 242 242 247 228 209 207 205 202 201 201 197 190 183 179 179 179 177 175 173 171 173 175 175 173 173 171 169 168 169 175 187 215 241
290 291 290 284 280 278 275 262 250 245 244 240 237 225 212 212 210 206 203 196 188 183 177 175 173 172 171 172 173 171 174 179 179 173 170 169 168 172 175 187 205 231 250
290 288 288 285 281 275 271 265 256 248 242 239 236 228 218 212 211 206 199 189 182 179 176 174 174 172 167 166 170 174 175 175 173 172 167 167 170 174 180 194 216 235 252
290 288 287 284 279 275 272 266 259 252 244 237 234 229 220 212 209 202 191 184 178 178 176 172 169 167 166 164 165 170 170 168 168 168 165 160 168 177 186 203 224 245 260
290 288 287 283 278 274 271 266 259 253 246 241 233 223 217 209 204 195 185 179 177 176 173 171 166 163 162 165 166 166 166 167 167 166 164 159 166 180 189 211 230 243 259
Height
1500 1501 1502 1502 1503 1503 1503 1503 1503 1503 1502 1502 1502 1501 1501 1500 1500 1499 1498 1498 1497 1496 1496 1495 1495 1495 1495 1496 1496 1497 1497 1498 1498 1498 1499 1499 1500 1500 1501 1502 1503 1504 1505
1498 1499 1499 1500 1500 1500 1501 1501 1501 1501 1501 1500 1500 1500 1499 1499 1499 1498 1498 1497 1496 1496 1495 1494 1494 1494 1494 1495 1495 1495 1496 1496 1497 1497 1497 1498 1498 1498 1499 1499 1500 1501 1502
1495 1496 1496 1497 1497 1498 1498 1499 1499 1498 1498 1498 1498 1498 1498 1497 1497 1497 1496 1496 1495 1495 1494 1494 1493 1493 1493 1494 1494 1494 1494 1495 1495 1496 1496 1496 1496 1497 1497 1497 1498 1498 1499
1492 1492 1493 1493 1494 1495 1495 1496 1496 1496 1496 1496 1496 1495 1495 1495 1495 1495 1495 1494 1494 1493 1493 1493 1493 1492 1492 1492 1492 1493 1493 1493 1494 1494 1494 1495 1495 1495 1495 1495 1496 1496 1496
1488 1489 1489 1490 1491 1491 1492 1492 1493 1493 1493 1493 1493 1493 1493 1493 1493 1493 1492 1492 1492 1492 1491 1491 1491 1491 1491 1491 1491 1491 1491 1492 1492 1492 1492 1493 1493 1493 1493 1493 1493 1494 1494
1485 1485 1486 1486 1487 1487 1488 1489 1489 1489 1489 1489 1489 1489 1489 1490 1490 1490 1490 1489 1489 1489 1489 1489 1489 1489 1489 1489 1489 1490 1490 1490 1490 1490 1490 1491 1491 1492 1492 1492 1492 1492 1492
1481 1482 1482 1482 1483 1483 1484 1484 1485 1485 1485 1485 1486 1486 1486 1486 1486 1486 1486 1486 1486 1486 1486 1486 1486 1487 1487 1487 1488 1488 1488 1488 1489 1489 1489 1489 1489 1490 1490 1490 1490 1490 1490
1478 1478 1478 1478 1478 1479 1479 1479 1480 1480 1481 1481 1481 1482 1482 1482 1483 1483 1483 1483 1483 1483 1483 1483 1484 1484 1484 1485 1485 1485 1486 1486 1486 1487 1487 1487 1488 1488 1488 1488 1488 1488 1488
1474 1474 1474 1474 1474 1474 1474 1474 1475 1475 1475 1476 1476 1477 1477 1478 1479 1479 1479 1479 1479 1479 1480 1480 1480 1481 1481 1482 1483 1483 1483 1484 1484 1484 1485 1485 1485 1486 1486 1486 1486 1486 1486
1471 1470 1470 1470 1469 1469 1469 1469 1470 1470 1470 1471 1471 1472 1473 1473 1474 1475 1475 1475 1475 1476 1476 1476 1477 1477 1478 1479 1480 1480 1481 1481 1482 1482 1482 1483 1483 1483 1483 1484 1484 1484 1483
1468 1467 1466 1465 1464 1464 1464 1464 1464 1464 1464 1465 1465 1466 1467 1468 1469 1470 1470 1471 1471 1472 1472 1473 1473 1474 1475 1475 1476 1477 1478 1478 1479 1479 1480 1480 1480 1481 1481 1481 1481 1481 1481
1464 1462 1461 1460 1459 1459 1458 1458 1458 1458 1458 1458 1459 1460 1461 1463 1464 1465 1466 1466 1467 1468 1468 1469 1470 1471 1471 1472 1473 1474 1475 1475 1476 1476 1477 1477 1478 1478 1478 1478 1479 1479 1479
1459 1457 1455 1454 1454 1453 1452 1452 1451 1451 1451 1452 1453 1454 1455 1457 1458 1460 1461 1462 1462 1464 1465 1466 1467 1468 1468 1469 1470 1471 1471 1472 1473 1473 1474 1475 1475 1476 1476 1476 1476 1476 1476
1454 1452 1450 1448 1447 1446 1446 1446 1445 1445 1445 1445 1446 1447 1449 1451 1452 1454 1455 1457 1458 1459 1461 1462 1463 1464 1465 1466 1467 1468 1468 1469 1470 1471 1471 1472 1473 1473 1473 1474 1474 1474 1473
1449 1447 1445 1443 1441 1440 1439 1439 1438 1438 1439 1439 1439 1441 1442 1443 1446 1448 1450 1451 1453 1455 1457 1458 1459 1460 1461 1462 1463 1464 1465 1466 1467 1467 1468 1469 1470 1470 1471 1471 1471 1471 1470
1444 1442 1439 1437 1435 1434 1432 1431 1431 1432 1432 1432 1433 1435 1435 1438 1440 1442 1444 1446 1448 1450 1452 1453 1455 1456 1457 1458 1460 1461 1462 1463 1464 1465 1466 1466 1467 1467 1468 1468 1468 1468 1467
1439 1436 1433 1431 1429 1427 1426 1424 1423 1423 1423 1424 1425 1427 1428 1430 1433 1435 1438 1440 1442 1444 1446 1448 1450 1451 1453 1454 1456 1457 1458 1460 1461 1462 1463 1463 1464 1464 1465 1465 1465 1464 1464
1433 1430 1427 1424 1422 1421 1419 1418 1417 1416 1415 1415 1417 1419 1420 1423 1425 1428 1431 1433 1435 1437 1439 1441 1444 1446 1448 1450 1452 1453 1455 1456 1457 1458 1459 1460 1461 1461 1461 1461 1461 1461 1460
1427 1423 1420 1417 1415 1413 1412 1411 1410 1409 1408 1408 1409 1410 1412 1414 1417 1420 1422 1424 1426 1429 1432 1435 1438 1441 1443 1445 1447 1449 1451 1452 1453 1455 1456 1456 1457 1458 1458 1458 1458 1458 1457
1420 1417 1414 1411 1408 1406 1404 1403 1402 1401 1400 1400 1401 1402 1404 1406 1407 1410 1413 1416 1419 1422 1426 1429 1432 1435 1437 1440 1442 1444 1446 1448 1449 1450 1451 1453 1453 1454 1454 1454 1454 1454 1454
1414 1410 1407 1404 1401 1398 1396 1395 1394 1393 1392 1392 1392 1394 1396 1398 1399 1401 1405 1408 1411 1415 1418 1422 1425 1429 1432 1434 1437 1439 1441 1443 1445 1446 1447 1448 1449 1450 1450 1450 1450 1450 1450
1407 1403 1400 1396 1393 1391 1389 1387 1385 1384 1383 1383 1384 1386 1387 1389 1391 1394 1397 1400 1404 1408 1412 1416 1419 1422 1425 1428 1431 1433 1436 1438 1440 1441 1443 1444 1445 1445 1446 1446 1446 1446 1445
1400 1396 1392 1389 1386 1383 1381 1378 1377 1376 1375 1375 1376 1377 1378 1380 1382 1385 1388 1392 1397 1401 1405 1408 1412 1416 1419 1422 1425 1428 1430 1432 1435 1436 1438 1439 1440 1441 1441 1442 1442 1441 1441
1393 1389 1385 1381 1377 1375 1372 1370 1368 1367 1367 1367 1367 1368 1369 1371 1374 1377 1380 1384 1389 1393 1397 1401 1405 1409 1413 1416 1419 1422 1425 1427 1429 1431 1433 1434 1435 1436 1436 1437 1437 1437 1436
1385 1381 1377 1373 1369 1366 1363 1361 1359 1358 1358 1358 1358 1360 1361 1363 1366 1369 1372 1376 1381 1385 1390 1395 1399 1403 1407 1410 1414 1417 1419 1422 1424 1426 1428 1429 1430 1431 1432 1432 1432 1432 1431
1377 1373 1368 1364 1360 1357 1354 1352 1350 1349 1349 1349 1350 1351 1353 1355 1358 1361 1364 1368 1373 1378 1383 1388 1393 1397 1401 1405 1408 1411 1414 1417 1419 1421 1422 1424 1425 1426 1426 1427 1426 1426 1426